Location: Newark
(27.9675°N, 86.8869°E)
Time: 02:17:52
(UTC+00:00)

OTV 5 (USA 277) - Visible Passes

Search period start: 18 October 2019 00:00
Search period end: 28 October 2019 00:00
Orbit: 310 x 324 km, 54.5° (Epoch: 08 October)

Date Brightness Start Highest point End Pass type
(mag) Time Alt. Az. Time Alt. Az. Time Alt. Az.
20 Oct ? 23:16:43 10° N 23:18:58 23° NE 23:21:14 10° ESE visible
21 Oct ? 23:31:03 12° NW 23:33:34 83° SW 23:36:15 10° SE visible
22 Oct ? 22:15:07 10° ENE 22:15:07 10° ENE 22:15:13 10° ENE visible
22 Oct ? 23:46:03 10° WNW 23:47:59 19° WSW 23:49:59 10° S visible
23 Oct ? 22:30:13 17° ESE 22:30:13 17° ESE 22:31:00 10° SE visible
24 Oct ? 13:06:16 10° SSW 13:06:35 12° SSW 13:06:35 12° SSW visible
24 Oct ? 22:45:23 10° SSE 22:45:23 10° SSE 22:45:27 10° SSE visible
25 Oct ? 13:20:44 10° WSW 13:21:40 18° WSW 13:21:40 18° WSW visible
26 Oct ? 12:01:40 10° S 12:03:45 20° SE 12:05:41 11° ENE visible
26 Oct ? 13:36:36 10° WNW 13:36:36 10° WNW 13:36:36 10° WNW visible
27 Oct ? 12:15:28 10° SW 12:18:10 88° SSE 12:20:30 13° NE visible
